Flag for Syria Weather past 2 weeks in Aleppo, Syria

Now
77 °F

Partly sunny.


Feels Like: 78 °F
Forecast: 57 / 79 °F
Wind: 3 mph from Northwest

Location: Iskenderun

Current Time: Oct 25, 2014 at 2:16:10 PM

Latest Report: Oct 25, 2014 at 1:00 PM


Visibility: 9 mi

Pressure: 30.01 "Hg

Humidity: 55%

Dew point: 59 °F

Location of AleppoLocation

Historic Weather in Aleppo — Graph

°F

Aleppo temperature yesterday

Maximum temperature yesterday: 78 °F (at 2:00 PM)
Minimum temperature yesterday: 67 °F (at 6:00 AM)
Average temperature yesterday: 73 °F

Past Weeks' High & Low Weather Summary

 TemperatureHumidityPressure
High87 °F (Oct 11, 2:00 PM)92% (Oct 15, 3:00 AM)30.09 "Hg (Oct 15, 3:00 AM)
Low58 °F (Oct 20, 6:00 AM)17% (Oct 21, 5:00 PM)29.79 "Hg (Oct 19, 3:00 AM)
Average72 °F57%29.96 "Hg
* Reported Oct 10 1:00 PM — Oct 25 1:00 PM, Aleppo, Weather by CustomWeather, © 2014

Note: Actual official high and low records may vary slightly from our data, if they occured in-between our weather recording intervals... More about our weather records

Advertising

Aleppo weather history for previous 24 hours

 ConditionsComfort  
Time TempWeatherWind HumidityBarometerVisibility
1:00 PM
Oct 25
77 °FPartly sunny.3 mph55%30.01 "Hg9 mi
12:00 PM77 °FPartly sunny.3 mph53%30.01 "Hg9 mi
11:00 AM76 °FScattered clouds.3 mph54%30.03 "Hg9 mi
10:00 AM77 °FScattered clouds.No wind50%30.03 "Hg9 mi
9:00 AM73 °FPassing clouds.1 mph57%30.03 "Hg9 mi
8:00 AM68 °FSunny.1 mph65%30.01 "Hg9 mi
7:00 AM68 °FScattered clouds.1 mph64%30.01 "Hg9 mi
6:00 AM68 °FPassing clouds.No wind63%30.02 "Hg9 mi
5:00 AM68 °FPassing clouds.No wind64%30.02 "Hg9 mi
4:00 AM68 °FPassing clouds.No wind67%30.03 "Hg9 mi
3:00 AM69 °FPassing clouds.1 mph64%30.05 "Hg12 mi
2:00 AM71 °FPassing clouds.1 mph61%30.05 "Hg9 mi
1:00 AM70 °FPassing clouds.1 mph60%30.06 "Hg9 mi
12:00 AM70 °FPassing clouds.1 mph60%30.05 "Hg9 mi
11:00 PM
Oct 24
70 °FPassing clouds.1 mph60%30.05 "Hg9 mi
10:00 PM70 °FPassing clouds.No wind62%30.05 "Hg9 mi
9:00 PM71 °FPassing clouds.1 mph57%30.04 "Hg9 mi
8:00 PM72 °FPassing clouds.1 mph62%30.03 "Hg9 mi
7:00 PM73 °FPassing clouds.No wind59%30.03 "Hg9 mi
6:00 PM74 °FPassing clouds.No wind57%30.03 "Hg9 mi
5:00 PM76 °FPartly sunny.2 mph53%30.03 "Hg9 mi
4:00 PM76 °FPartly sunny.1 mph52%30.04 "Hg9 mi
3:00 PM77 °FScattered clouds.5 mph51%30.03 "Hg9 mi
2:00 PM78 °FScattered clouds.5 mph52%30.03 "Hg9 mi
Weather by CustomWeather, © 2014

See weather overviewHow to use our weather pages